Location: Doschendorf
(50.0069°N, 11.0602°E)
Time: 12:24:13
(UTC+00:00)

Cosmos 1869 - Pass Details

Date: 17 November 2019
Orbit: 529 x 554 km, 82.5° (Epoch: 06 December)

Event Time Altitude Azimuth Distance (km) Brightness Sun altitude
Rises 16:31:11 0° 179° (S) 2,683 7.1 -9.9°
Reaches altitude 10° 16:33:21 10° 175° (S) 1,793 6.1 -10.2°
Maximum altitude 16:37:13 59° 96° (E) 622 3.3 -10.8°
Drops below altitude 10° 16:41:06 10° 17° (NNE) 1,796 5.6 -11.4°
Sets 16:43:16 0° 14° (NNE) 2,689 6.5 -11.7°
